Location: ?nandapuram
(16.5396°N, 81.1430°E)
Time: 09:36:31
(UTC+00:00)

Meteor 2-11 Rocket - Pass Details

Date: 14 April 2026
Orbit: 940 x 956 km, 82.5° (Epoch: 12 May)

Event Time Altitude Azimuth Distance (km) Brightness Sun altitude
Rises 23:26:46 0° 348° (NNW) 3,626 7.5 -13.4°
Reaches altitude 10° 23:29:18 10° 345° (NNW) 2,678 6.8 -12.8°
Maximum altitude 23:35:17 57° 268° (W) 1,110 4.5 -11.4°
Drops below altitude 10° 23:41:14 10° 190° (S) 2,665 6.6 -10.0°
Sets 23:43:46 0° 186° (S) 3,607 7.3 -9.4°
